Zurück zum Katalog

STARLINK-4255

AktivKommunikationVLEO
NORAD 53003·PAYLOAD·🇺🇸 United States

Gestartet Jul 7, 2022 von Cape Canaveral Space Force Station

Loading…

Nächste Überflüge (nächste 24 Stunden)

TLE

AktuellSource: CelesTrak SupGP

Epoche: Sep 14, 2026, 21:35 UTC

1 53003C 22076T   26257.89979167 -.00001143  00000+0 -33771-4 0  2578
2 53003  53.1588 309.5552 0001365  81.2050 119.9750 15.34387325    17

Verfolge STARLINK-4255 in Echtzeit mit AllMySat

Download on the App Store